Location: Butler
(32.5575°N, 84.2380°W)
Time: 07:12:54
(UTC+00:00)

N. Korean satellite - Pass Details

Date: 04 December 2021
Orbit: 447 x 491 km, 97.3° (Epoch: 22 January)

Event Time Altitude Azimuth Distance (km) Brightness Sun altitude
Rises 23:12:52 0° 213° (SSW) 2,537 11.2 -8.9°
Reaches altitude 10° 23:16:31 10° 252° (WSW) 1,651 10.9 -9.6°
Maximum altitude 23:17:22 11° 266° (W) 1,608 10.6 -9.8°
Drops below altitude 10° 23:18:12 10° 280° (W) 1,647 10.3 -10.0°
Sets 23:21:51 0° 320° (NW) 2,516 10.5 -10.7°
